Weather History for San Jose, Costa Rica

Change the Weather History Date:

Friday, February 15, 2013

  Actual Average Record
Temperature  
Mean Temperature 74 °F -  
Max Temperature 85 °F 82 °F 87 °F (2003)
Min Temperature 62 °F 64 °F 60 °F (2012)
Cooling Degree Days 8    
Growing Degree Days 24 (Base 50)    
Moisture  
Dew Point 57 °F    
Average Humidity 59    
Maximum Humidity 78    
Minimum Humidity 21    
Precipitation  
Precipitation 0.00 in 0.02 in - ()
Sea Level Pressure  
Sea Level Pressure 29.95 in    
Wind  
Wind Speed 7 mph ()    
Max Wind Speed 12 mph    
Max Gust Speed -    
Visibility 8.8 miles    
Events Rain    
Averages and records for this station are not official NWS values.
T = Trace of Precipitation, MM = Missing Value Source: Averaged Metar Reports

Daily Weather History Graph

Daily Weather History Graph

Search for Another Location

Airport:

Trip Planner

Search our weather history database for the weather conditions in past years. The results will help you decide how hot, cold, wet, or windy it might be!

Date:

Astronomy

Feb. 15, 2013 Rise Set
Actual Time 5:56 AM CST 5:45 PM CST
Civil Twilight 5:35 AM CST 6:07 PM CST
Nautical Twilight 5:10 AM CST 6:31 PM CST
Astronomical Twilight 4:45 AM CST 6:56 PM CST
Moon 9:44 AM CST (2/15) 10:28 PM CST (2/15)
Length of Visible Light 12h 32m
Length of Day
11h 49m
Waxing Crescent, 30% of the Moon is Illuminated
Feb 15
Waxing Crescent
Feb 17
First Quarter
Feb 25
Full
Mar 4
Last Quarter
Mar 11
New

Hourly Weather History & Observations

Time (CST) Temp. Heat Index Dew Point Humidity Pressure Visibility Wind Dir Wind Speed Gust Speed Precip Events Conditions
12:00 AM 68 °F - 58 °F 63% 29.85 in 12 mi ENE 9.2 mph - -  
12:00 AM 68.0 °F - 59.0 °F 73% 30.02 in - ENE 9.2 mph - N/A   Clear
1:00 AM 66.2 °F - 57.2 °F 73% 30.00 in - ENE 6.9 mph - N/A   Clear
2:00 AM 66.2 °F - 57.2 °F 73% 29.98 in - ENE 5.8 mph - N/A   Clear
3:00 AM 65 °F - 56 °F 64% 29.83 in 12 mi NE 5.8 mph - -  
3:00 AM 64.4 °F - 55.4 °F 73% 29.98 in - NE 5.8 mph - N/A   Clear
4:00 AM 66.2 °F - 53.6 °F 64% 29.98 in - ENE 9.2 mph - N/A   Clear
5:00 AM 64.4 °F - 53.6 °F 68% 29.99 in - ENE 8.1 mph - N/A   Clear
6:00 AM 65 °F - 53 °F 55% 29.89 in 12 mi East 8.1 mph - -  
6:00 AM 64.4 °F - 51.8 °F 64% 30.01 in - East 8.1 mph - N/A   Clear
7:00 AM 66.2 °F - 51.8 °F 60% 30.03 in - NE 5.8 mph - N/A   Clear
8:00 AM 73.4 °F - 50.0 °F 44% 30.04 in - East 8.1 mph - N/A   Clear
9:00 AM 79 °F - 46 °F 21% 29.88 in 12 mi East 6.9 mph - -  
9:00 AM 78.8 °F - 46.4 °F 32% 30.04 in - East 6.9 mph - N/A   Clear
10:00 AM 82.4 °F - 46.4 °F 28% 30.04 in - SE 5.8 mph - N/A   Clear
11:00 AM 82.4 °F 81.7 °F 55.4 °F 39% 30.01 in 6.2 mi WSW 6.9 mph - N/A   Partly Cloudy
12:00 PM 84 °F - 57 °F 29% 29.80 in 12 mi SW 9.2 mph - -   Scattered Clouds
12:00 PM 84.2 °F 83.5 °F 57.2 °F 40% 29.98 in 6.2 mi SW 9.2 mph - N/A   Partly Cloudy
1:00 PM 82.4 °F 82.5 °F 59.0 °F 45% 29.96 in 6.2 mi WSW 11.5 mph - N/A   Scattered Clouds
2:00 PM 78.8 °F - 64.4 °F 61% 29.94 in 6.2 mi SW 11.5 mph - N/A   Scattered Clouds
3:00 PM 78 °F - 65 °F 56% 29.77 in 12 mi South 10.4 mph - -   Mostly Cloudy
3:00 PM 78.8 °F - 64.4 °F 61% 29.92 in 6.2 mi South 10.4 mph - N/A   Scattered Clouds
4:00 PM 75.2 °F - 66.2 °F 73% 29.93 in 6.2 mi SW 11.5 mph - N/A   Mostly Cloudy
5:00 PM 73.4 °F - 66.2 °F 78% 29.95 in 6.2 mi South 5.8 mph - N/A Rain Light Rain
6:00 PM 73 °F - 64 °F 65% 29.81 in 12 mi WNW 3.5 mph - -   Mostly Cloudy
6:00 PM 73.4 °F - 64.4 °F 73% 29.95 in 6.2 mi WNW 3.5 mph - N/A   Scattered Clouds
7:00 PM 73.4 °F - 62.6 °F 69% 29.98 in 6.2 mi ESE 3.5 mph - N/A   Scattered Clouds
8:00 PM 71.6 °F - 60.8 °F 69% 30.00 in 6.2 mi ESE 5.8 mph - N/A   Mostly Cloudy
9:00 PM 70 °F - 59 °F 59% 29.92 in 12 mi SE 2.3 mph - -   Scattered Clouds
9:00 PM 69.8 °F - 59.0 °F 68% 30.01 in - SE 2.3 mph - N/A   Clear
10:00 PM 69.8 °F - 59.0 °F 68% 30.02 in - East 9.2 mph - N/A   Clear
11:00 PM 68.0 °F - 59.0 °F 73% 30.02 in - ENE 9.2 mph - N/A   Clear